Guest (not logged in) | Log in

Project information

Duration: 2018-12-20 00:00 onwards
Historical data from: 1995-01-01
Position: 0° 0' 0.00" N
0° 0' 0.00" E
0 m A.S.L
Contact: Carsten Weber Kock
Description: Zephir 317 måler vind i Roskilde

Measurements

NameHeight [m]DurationLatest (2019-05-23 23:50)
Dir_100m 0.00 2018-12-20 14:20 onwards 216.87 Deg
Dir_10m 0.00 2018-12-20 14:20 onwards 210.87 Deg
Dir_125m 0.00 2018-12-20 14:20 onwards 225.14 Deg
Dir_150m 0.00 2018-12-20 14:20 onwards 227.10 Deg
Dir_200m 0.00 2018-12-20 14:20 onwards 228.52 Deg
Dir_20m 0.00 2018-12-20 14:20 onwards 203.76 Deg
Dir_30m 0.00 2018-12-20 14:20 onwards 203.81 Deg
Dir_38m 0.00 2018-12-20 14:20 onwards 204.00 Deg
Dir_50m 0.00 2018-12-20 14:20 onwards 204.79 Deg
Dir_60m 0.00 2018-12-20 14:20 onwards 206.21 Deg
Dir_800m 0.00 2018-12-20 14:20 onwards 232.73 Deg
Dir_80m 0.00 2018-12-20 14:20 onwards 210.87 Deg
Humidity 0.00 2018-12-20 14:20 onwards 15.50 %
MetDir 0.00 2018-12-20 14:20 onwards 180.92 Deg
Metwsp 0.00 2018-12-20 14:20 onwards 2.84 m/s
Pressure 0.00 2018-12-20 14:20 onwards 1006.70 mbar
Temp 0.00 2018-12-20 14:20 onwards 10.00 DegC
TI_100m 0.00 2018-12-20 14:20 onwards 0.01 -
TI_10m 0.00 2018-12-20 14:20 onwards 0.14 -
TI_125m 0.00 2018-12-20 14:20 onwards 0.01 -
TI_150m 0.00 2018-12-20 14:20 onwards 0.02 -
TI_200m 0.00 2018-12-20 14:20 onwards 0.01 -
TI_20m 0.00 2018-12-20 14:20 onwards 0.08 -
TI_30m 0.00 2018-12-20 14:20 onwards 0.06 -
TI_38m 0.00 2018-12-20 14:20 onwards 0.04 -
TI_50m 0.00 2018-12-20 14:20 onwards 0.03 -
TI_60m 0.00 2018-12-20 14:20 onwards 0.03 -
TI_800m 0.00 2018-12-20 14:20 onwards 0.01 -
TI_80m 0.00 2018-12-20 14:20 onwards 0.02 -
Vert_100m 0.00 2018-12-20 14:20 onwards -0.05 m/s
Vert_10m 0.00 2018-12-20 14:20 onwards 0.07 m/s
Vert_125m 0.00 2018-12-20 14:20 onwards -0.07 m/s
Vert_150m 0.00 2018-12-20 14:20 onwards -0.08 m/s
Vert_200m 0.00 2018-12-20 14:20 onwards -0.08 m/s
Vert_20m 0.00 2018-12-20 14:20 onwards 0.03 m/s
Vert_30m 0.00 2018-12-20 14:20 onwards 0.01 m/s
Vert_38m 0.00 2018-12-20 14:20 onwards 0.00 m/s
Vert_50m 0.00 2018-12-20 14:20 onwards -0.01 m/s
Vert_60m 0.00 2018-12-20 14:20 onwards -0.02 m/s
Vert_800m 0.00 2018-12-20 14:20 onwards -0.11 m/s
Vert_80m 0.00 2018-12-20 14:20 onwards -0.04 m/s
Wsp_100m 0.00 2018-12-20 14:20 onwards 9.86 m/s
Wsp_10m 0.00 2018-12-20 14:20 onwards 2.82 m/s
Wsp_125m 0.00 2018-12-20 14:20 onwards 10.61 m/s
Wsp_150m 0.00 2018-12-20 14:20 onwards 10.68 m/s
Wsp_200m 0.00 2018-12-20 14:20 onwards 10.73 m/s
Wsp_20m 0.00 2018-12-20 14:20 onwards 4.01 m/s
Wsp_30m 0.00 2018-12-20 14:20 onwards 4.91 m/s
Wsp_38m 0.00 2018-12-20 14:20 onwards 5.61 m/s
Wsp_50m 0.00 2018-12-20 14:20 onwards 6.59 m/s
Wsp_60m 0.00 2018-12-20 14:20 onwards 7.33 m/s
Wsp_800m 0.00 2018-12-20 14:20 onwards 11.48 m/s
Wsp_80m 0.00 2018-12-20 14:20 onwards 8.94 m/s
Comments and help requests to webmaster
© 2019